Hourly Weather Roundup
Issued by NWS Central Illinois

Home | Current Version | Previous Version | Text Only | Print | Product List | Glossary On
Versions: 1 2 3 4 5 6 7 8 9 10 11 12 13 14 15 16 17 18 19 20 21 22 23 24 25 26 27 28 29 30 31 32 33 34 35 36 37 38 39 40 41 42 43 44 45 46 47 48 49 50
000
NZUS43 KILX 171910
HWRILX

AREA WEATHER ROUNDUP
NATIONAL WEATHER SERVICE, LINCOLN IL
200 PM CDT FRI APR 17 2015


CITY           SKY/WX    TMP DP  RH WIND       PRES   REMARKS
BLOOMINGTON    PTSUNNY   78  51  38 NE5       30.07F
CHAMPAIGN      MOSUNNY   76  49  38 CALM      30.07F
DECATUR        PTSUNNY   76  53  44 S5        30.07F
EFFINGHAM      PTSUNNY   74  51  44 SE6       30.08F
FLORA          MOSUNNY   75  55  49 SE7       30.07F
GALESBURG      PTSUNNY   76  51  41 S7        30.04F
JACKSONVILLE   CLOUDY    78  55  45 SE6       30.05F
LACON          PTSUNNY   75  47  37 NW5       30.03F
LAWRENCEVILLE  MOSUNNY   75  54  47 CALM      30.07F
LITCHFIELD     PTSUNNY   74  51  45 CALM      30.06F
$$


CITY           SKY/WX    TMP DP  RH WIND       PRES   REMARKS
LINCOLN        CLOUDY    77  50  38 CALM      30.03F
MACOMB         PTSUNNY   79  51  36 S7        30.05F
MATTOON        MOSUNNY   73  55  53 CALM      30.06F
MT CARMEL AP   PTSUNNY   77  50  38 CALM      30.06F
OLNEY-NOBLE AP PTSUNNY   73  55  53 E3        30.06F
PARIS          SUNNY     74  52  46 S6        30.08F
PEORIA         PTSUNNY   78  51  38 CALM      30.05F
PONTIAC        CLOUDY    78  48  34 W3        30.05F
RANTOUL        SUNNY     76  47  35 W3        30.07F
ROBINSON       SUNNY     75  53  45 E3        30.08F
SPRINGFIELD    PTSUNNY   77  53  43 VRB5      30.06F
TAYLORVILLE    MOSUNNY   73  54  49 S6        30.07F
$$

...REGIONAL REPORTS...


CITY           SKY/WX    TMP DP  RH WIND       PRES   REMARKS
CHICAGO O`HARE PTSUNNY   74  45  35 VRB5      30.03F
KANKAKEE       MOSUNNY   75  48  38 S3        30.06F
MOLINE         MOSUNNY   80  46  30 CALM      30.03F
MOUNT VERNON   PTSUNNY   75  59  57 E6        30.07F
PITTSFIELD     PTSUNNY   77  54  45 E6        30.06F
QUINCY         PTSUNNY   76  54  46 VRB6      30.04F
ROCKFORD       PTSUNNY   79  49  34 W10       30.05F
$$


CITY           SKY/WX    TMP DP  RH WIND       PRES   REMARKS
BURLINGTON     PTSUNNY   77  53  43 W7        30.03F
CEDAR RAPIDS   PTSUNNY   77  50  38 MISG      30.03F
DES MOINES     PTSUNNY   78  48  34 S6        30.05F
KIRKSVILLE     MOSUNNY   78  57  48 SE9       30.05F
OTTUMWA        CLOUDY    78  51  38 VRB5      30.04F
ST LOUIS       PTSUNNY   77  55  46 E7        30.06F
$$


CITY           SKY/WX    TMP DP  RH WIND       PRES   REMARKS
TERRE HAUTE    SUNNY     72  51  47 W3        30.07F
EVANSVILLE     CLOUDY    75  59  57 VRB5      30.06F
INDIANAPOLIS   PTSUNNY   74  44  34 VRB5      30.06F
LAFAYETTE      SUNNY     74  44  34 CALM      30.06F
MADISON        PTSUNNY   77  44  30 VRB7      30.01F
MILWAUKEE      PTSUNNY   61  40  45 NE10      30.04F
$$





USA.gov is the U.S. government's official web portal to all federal, state and local government web resources and services.